Weather History for KGUY - June, 2013

Change the Weather History Date:

Monday, June 3, 2013

  Actual Average Record
Temperature  
Mean Temperature 83 °F 70 °F  
Max Temperature 102 °F 84 °F 102 °F (2013)
Min Temperature 64 °F 57 °F 55 °F (2003)
Degree Days  
Heating Degree Days 0 1  
Month to date heating degree days 0 3  
Since 1 June heating degree days 0 3  
Since 1 July heating degree days 4311 4452  
Cooling Degree Days 18 6  
Month to date cooling degree days 21 18  
Year to date cooling degree days 225 126  
Since 1 June cooling degree days 21 18  
Growing Degree Days 32 (Base 50)    
Moisture  
Dew Point 48 °F    
Average Humidity 33    
Maximum Humidity 50    
Minimum Humidity 16    
Precipitation  
Precipitation 0.09 in 0.12 in 0.20 in (2006)
Month to date precipitation 0.09 0.37  
Year to date precipitation 2.44 6.62  
Snow  
Snow 0.00 in - - ()
Month to date snowfall 0.0  
Since 1 June snowfall 0.0  
Since 1 July snowfall 22.3  
Snow Depth 0.00 in    
Sea Level Pressure  
Sea Level Pressure 29.66 in    
Wind  
Wind Speed 18 mph (South)    
Max Wind Speed 33 mph    
Max Gust Speed 44 mph    
Visibility 10 miles    
Events Rain , Thunderstorm    
T = Trace of Precipitation, MM = Missing Value Source: NWS Daily Summary

Daily Weather History Graph

Daily Weather History Graph

Search for Another Location

Airport or City:

Trip Planner

Search our weather history database for the weather conditions in past years. The results will help you decide how hot, cold, wet, or windy it might be!

Date:

Astronomy

Jun. 03, 2013 Rise Set
Actual Time 6:28 AM CDT 9:00 PM CDT
Civil Twilight 5:57 AM CDT 9:30 PM CDT
Nautical Twilight 5:20 AM CDT 10:08 PM CDT
Astronomical Twilight 4:39 AM CDT 10:50 PM CDT
Moon 3:20 AM CDT (6/3) 4:38 PM CDT (6/3)
Length of Visible Light 15h 33m
Length of Day
14h 32m
Waning Crescent, 22% of the Moon is Illuminated
Jun 3
Waning Crescent
Jun 8
New
Jun 16
First Quarter
Jun 23
Full
Jun 29
Last Quarter

Hourly Weather History & Observations

Time (CDT) Temp. Heat Index Dew Point Humidity Pressure Visibility Wind Dir Wind Speed Gust Speed Precip Events Conditions
12:53 AM 70.0 °F - 42.1 °F 36% 29.80 in 10.0 mi SSE 16.1 mph 25.3 mph N/A   Clear
1:53 AM 68.0 °F - 42.1 °F 39% 29.78 in 10.0 mi SSE 17.3 mph 25.3 mph N/A   Clear
2:53 AM 68.0 °F - 42.1 °F 39% 29.77 in 10.0 mi South 18.4 mph 26.5 mph N/A   Clear
3:53 AM 66.0 °F - 43.0 °F 43% 29.77 in 10.0 mi South 18.4 mph 26.5 mph N/A   Clear
4:53 AM 64.9 °F - 43.0 °F 45% 29.76 in 10.0 mi South 13.8 mph 23.0 mph N/A   Clear
5:53 AM 64.9 °F - 43.0 °F 45% 29.77 in 10.0 mi South 15.0 mph 23.0 mph N/A   Clear
6:53 AM 64.0 °F - 43.0 °F 46% 29.76 in 10.0 mi South 11.5 mph - N/A   Clear
7:53 AM 66.0 °F - 44.1 °F 45% 29.76 in 10.0 mi South 15.0 mph 21.9 mph N/A   Clear
8:53 AM 70.0 °F - 45.0 °F 41% 29.75 in 10.0 mi South 17.3 mph 24.2 mph N/A   Clear
9:53 AM 75.0 °F - 46.9 °F 37% 29.73 in 10.0 mi South 18.4 mph 25.3 mph N/A   Clear
10:53 AM 81.0 °F - 50.0 °F 34% 29.71 in 10.0 mi South 19.6 mph - N/A   Clear
11:53 AM 84.0 °F - 50.0 °F 31% 29.67 in 10.0 mi South 18.4 mph 27.6 mph N/A   Clear
12:53 PM 90.0 °F - 51.1 °F 26% 29.62 in 10.0 mi South 20.7 mph 32.2 mph N/A   Scattered Clouds
1:30 PM 96.8 °F - 48.2 °F 19% 29.76 in 10.0 mi SW 29.9 mph 35.7 mph N/A   Overcast
1:53 PM 97.0 °F - 48.0 °F 19% 29.57 in 10.0 mi SSW 25.3 mph 36.8 mph N/A   Overcast
2:06 PM 98.6 °F - 48.2 °F 18% 29.73 in 10.0 mi SSW 25.3 mph 33.4 mph N/A   Mostly Cloudy
2:53 PM 99.0 °F - 46.9 °F 17% 29.52 in 10.0 mi South 28.8 mph 40.3 mph N/A   Clear
3:53 PM 100.0 °F - 46.9 °F 16% 29.50 in 10.0 mi South 31.1 mph 42.6 mph N/A   Clear
4:53 PM 100.0 °F - 46.0 °F 16% 29.48 in 10.0 mi South 25.3 mph 36.8 mph N/A   Clear
5:39 PM 96.8 °F - 42.8 °F 16% 29.65 in 10.0 mi SW 21.9 mph 35.7 mph N/A Thunderstorm Clear
5:53 PM 93.0 °F - 39.9 °F 16% 29.51 in 9.0 mi WNW 18.4 mph 24.2 mph 0.00 in Rain , Thunderstorm Light Thunderstorms and Rain
6:00 PM 89.6 °F - 44.6 °F 21% 29.67 in 9.0 mi WSW 18.4 mph 31.1 mph 0.00 in Rain , Thunderstorm Light Thunderstorms and Rain
6:53 PM 78.1 °F - 55.9 °F 46% 29.53 in 10.0 mi NE 9.2 mph 16.1 mph 0.09 in Thunderstorm Thunderstorm
7:33 PM 86.0 °F - 51.8 °F 31% 29.63 in 10.0 mi East 10.4 mph - N/A   Partly Cloudy
7:53 PM 84.0 °F - 52.0 °F 33% 29.48 in 10.0 mi ESE 12.7 mph 19.6 mph N/A   Clear
8:53 PM 78.1 °F - 54.0 °F 43% 29.50 in 10.0 mi ESE 11.5 mph - N/A   Clear
9:53 PM 79.0 °F - 57.0 °F 47% 29.55 in 10.0 mi SE 13.8 mph 25.3 mph N/A   Clear
10:53 PM 84.0 °F 82.6 °F 54.0 °F 35% 29.58 in 10.0 mi Variable 4.6 mph 23.0 mph N/A   Clear
11:43 PM 78.8 °F - 55.4 °F 44% 29.77 in 10.0 mi ESE 19.6 mph 35.7 mph N/A   Clear
11:53 PM 75.9 °F - 55.9 °F 50% 29.61 in 10.0 mi ESE 19.6 mph 31.1 mph N/A   Clear